Home   Weather   Finse   Past weeks

Flag for Norway Past Weather in Finse, Norway — Yesterday and Last 2 Weeks

Now
11 °F

Cold.


Feels Like: 2 °F
Forecast: -5 / 20 °F
Wind: 6 mph from Northwest

Location: Finsevatn

Current Time: Feb 24, 2017 at 12:19:53 pm

Latest Report: Feb 24, 2017 at 11:00 am


Visibility: N/A

Pressure: 29.65 "Hg (25.28 "Hg at 1221m altitude)

Humidity: 75%

Dew Point: 5 °F

Location of FinseLocation

Past Weather in Finse — Graph

°F

Finse Temperature Yesterday

Maximum temperature yesterday: 22 °F (at 12:00 am)
Minimum temperature yesterday: -1 °F (at 7:00 pm)
Average temperature yesterday: 10 °F

High & Low Weather Summary for the Past Weeks

 TemperatureHumidityPressure
High44 °F (Feb 15, 1:00 pm)95% (Feb 13, 11:00 pm)30.99 "Hg (Feb 13, 11:00 pm)
Low-2 °F (Feb 24, 3:00 am)42% (Feb 15, 10:00 am)28.58 "Hg (Feb 22, 2:00 pm)
Average20 °F80%30.03 "Hg
* Reported Feb 9 10:00 am — Feb 24 10:00 am, Finse, Weather by CustomWeather, © 2017

Note: Actual official high and low records may vary slightly from our data, if they occured in-between our weather recording intervals... More about our weather records

Advertising

Finse Weather History for the Previous 24 Hours

Scroll right to see more
 ConditionsComfort  
Time TempWeatherWind HumidityBarometerVisibility
10:00 am
Fri, Feb 24
10 °FFrigid.6 mph75%29.64 "HgN/A
9:00 am10 °FFrigid.6 mph79%29.61 "HgN/A
8:00 am10 °FFrigid.6 mph76%29.58 "HgN/A
7:00 am10 °FFrigid.7 mph76%29.55 "HgN/A
6:00 am8 °FFrigid.6 mph74%29.54 "HgN/A
5:00 am5 °FFrigid.6 mph78%29.54 "HgN/A
4:00 am2 °FFrigid.5 mph75%29.54 "HgN/A
3:00 am-2 °FFrigid.1 mph79%29.57 "HgN/A
2:00 am0 °FFrigid.2 mph78%29.50 "HgN/A
1:00 am4 °FFrigid.2 mph77%29.44 "HgN/A
12:00 am3 °FFrigid.1 mph79%29.44 "HgN/A
11:00 pm
Thu, Feb 23
1 °FFrigid.2 mph81%29.44 "HgN/A
10:00 pm3 °FFrigid.1 mph75%29.41 "HgN/A
9:00 pm4 °FFrigid.2 mph75%29.38 "HgN/A
8:00 pm2 °FFrigid.1 mph76%29.38 "HgN/A
7:00 pm-1 °FFrigid.2 mph69%29.41 "HgN/A
6:00 pm3 °FFrigid.2 mph64%29.35 "HgN/A
5:00 pm2 °FFrigid.2 mph61%29.35 "HgN/A
4:00 pm6 °FFrigid.1 mph49%29.29 "HgN/A
3:00 pm6 °FFrigid.1 mph58%29.32 "HgN/A
2:00 pm9 °FFrigid.1 mph63%29.32 "HgN/A
1:00 pm8 °FFrigid.1 mph63%29.32 "HgN/A
12:00 pm10 °FCold.1 mph64%29.32 "HgN/A
Weather by CustomWeather, © 2017

See weather overviewHow to use our weather pages